This demonstration page uses our WeatherBlox Daily Observations layout. Learn more.

Left ArrowRight Arrow

Hourly Observations for August 3, 2021

Temp ( °F °C ) Dew Point ( °F °C ) Humidity (%) Winds ( mph kmh ) Pressure ( in mb ) Visibility ( mi km ) Precip ( " mm )
12:15 am 00:15 Mostly Cloudy 64 18 58 14.5 80 80 SE 8 13 30.08 1019 10 16 N/A
12:35 am 00:35 Partly Cloudy 64 17.8 58 14.3 80 80 SSE 7 11 30.09 1019 10 16 N/A
12:55 am 00:55 Mostly Cloudy 64 18 58 14.2 79 79 SSE 5 7 30.08 1019 10 16 N/A
1:15 am 01:15 Mostly Cloudy 65 18.1 57 14.1 78 78 SSE 6 9 30.08 1019 10 16 N/A
1:35 am 01:35 Cloudy 64 17.8 57 14 79 79 SSE 5 7 30.09 1019 10 16 N/A
1:55 am 01:55 Cloudy 64 17.8 57 14 79 79 SSE 6 9 30.08 1018 10 16 N/A
2:15 am 02:15 Cloudy 64 17.5 57 13.9 80 80 SE 6 9 30.07 1018 10 16 N/A
2:35 am 02:35 Mostly Cloudy 63 17.1 57 14.1 83 83 SE 5 7 30.07 1018 10 16 N/A
2:55 am 02:55 Cloudy 64 17.5 57 14 80 80 SSE 5 7 30.07 1018 10 16 N/A
3:15 am 03:15 Mostly Cloudy 63 17.1 57 13.7 81 81 SE 5 7 30.07 1018 10 16 N/A
3:35 am 03:35 Partly Cloudy 62 16.8 56 13.5 81 81 SSE 5 7 30.07 1018 10 16 N/A
3:55 am 03:55 Mostly Cloudy 62 16.6 56 13.6 83 83 SSE 5 7 30.08 1018 10 16 N/A
4:15 am 04:15 Mostly Cloudy 61 16.2 57 13.8 86 86 ESE 6 9 30.08 1019 10 16 N/A
4:35 am 04:35 Mostly Cloudy 61 16.3 57 14 86 86 SSE 3 6 30.09 1019 10 16 N/A
4:55 am 04:55 Partly Cloudy 60 15.7 56 13.5 87 87 SSE 5 7 30.08 1019 10 16 N/A
5:15 am 05:15 Clear 60 15.7 56 13.6 87 87 SSE 3 6 30.08 1019 10 16 N/A
5:35 am 05:35 Clear 60 15.4 56 13.3 87 87 SSE 3 6 30.09 1019 10 16 N/A
5:55 am 05:55 Clear 59 15 56 13.2 89 89 SE 5 7 30.09 1019 10 16 N/A
6:15 am 06:15 Clear 59 14.9 56 13.2 90 90 SE 5 7 30.09 1019 10 16 N/A
6:35 am 06:35 Clear 58 14.5 56 13.1 91 91 SE 7 11 30.09 1019 10 16 N/A
6:55 am 06:55 Partly Cloudy 59 14.9 56 13.3 90 90 SE 6 9 30.09 1019 10 16 N/A
7:15 am 07:15 Partly Cloudy 59 15 56 13.1 89 89 SE 7 11 30.09 1019 7 11 N/A
7:35 am 07:35 Partly Cloudy 60 15.5 56 13.5 88 88 SE 7 11 30.08 1019 7 11 N/A
7:55 am 07:55 Partly Cloudy 61 16.2 57 14 87 87 SSE 7 11 30.08 1019 7 11 N/A
8:15 am 08:15 Sunny 63 17 58 14.4 85 85 SSE 6 9 30.07 1018 7 11 N/A
8:35 am 08:35 Sunny 64 17.6 58 14.5 82 82 SSE 8 13 30.07 1018 7 11 N/A
8:55 am 08:55 Sunny 65 18.5 58 14.5 78 78 SSE 10 17 30.06 1018 7 11 N/A
9:15 am 09:15 Sunny 67 19.6 58 14.4 72 72 SSE 10 17 30.05 1018 7 11 N/A
9:35 am 09:35 Sunny 69 20.3 57 14.1 68 68 SSE 12 19 30.04 1017 7 11 N/A
9:55 am 09:55 Sunny 70 21.2 58 14.5 66 66 SSE 13 20 30.03 1017 7 11 N/A
10:15 am 10:15 Sunny 71 21.6 57 14.1 62 62 SSE 15 24 30.02 1017 10 16 N/A
10:35 am 10:35 Sunny 73 22.6 59 14.9 62 62 SSE 14 22 30.02 1016 7 11 N/A
10:55 am 10:55 Sunny 74 23.1 58 14.6 59 59 SSE 13 20 30.01 1016 10 16 N/A
11:15 am 11:15 Sunny 74 23.6 58 14.6 57 57 SSE 14 22 30.00 1016 10 16 N/A
11:35 am 11:35 Sunny 76 24.3 60 15.3 57 57 SSE 13 20 29.99 1016 10 16 N/A
11:55 am 11:55 Sunny 76 24.6 58 14.5 53 53 SSE 12 19 29.98 1015 10 16 N/A
12:15 pm 12:15 Sunny 77 25.1 59 15.1 54 54 SSE 14 22 29.98 1015 10 16 N/A
12:35 pm 12:35 Sunny 78 25.6 58 14.6 51 51 SSE 12 19 29.97 1015 10 16 N/A
12:55 pm 12:55 Sunny 78 25.8 58 14.3 49 49 S 15 24 29.96 1015 10 16 N/A
1:15 pm 13:15 Sunny 79 26.2 59 14.9 50 50 SSE 14 22 29.96 1014 10 16 N/A
1:35 pm 13:35 Sunny 80 26.4 59 15.2 50 50 SSE 15 24 29.96 1014 10 16 N/A
1:55 pm 13:55 Sunny 81 27.1 61 15.9 50 50 SSE 14 22 29.94 1014 10 16 N/A
2:15 pm 14:15 Sunny 81 27.2 59 15 47 47 S 13 20 29.94 1014 10 16 N/A
2:35 pm 14:35 Sunny 82 27.7 59 15.2 46 46 SSE 12 19 29.92 1013 10 16 N/A
2:55 pm 14:55 Sunny 82 27.8 58 14.4 44 44 SSE 13 20 29.92 1013 10 16 N/A
3:15 pm 15:15 Sunny 83 28.2 58 14.7 44 44 SSE 13 20 29.91 1013 10 16 N/A
3:35 pm 15:35 Sunny 83 28.4 60 15.6 46 46 SSE 10 17 29.91 1013 10 16 N/A
3:55 pm 15:55 Sunny 83 28.6 59 15 44 44 SSE 14 22 29.91 1013 10 16 N/A
4:15 pm 16:15 Sunny 84 28.7 60 15.4 44 44 SSE 13 20 29.90 1012 10 16 N/A
4:35 pm 16:35 Sunny 84 28.8 60 15.3 44 44 SE 10 17 29.90 1012 10 16 N/A
4:55 pm 16:55 Sunny 84 28.7 59 15.1 44 44 SE 12 19 29.89 1012 10 16 N/A
5:15 pm 17:15 Sunny 84 28.9 60 15.3 44 44 SE 12 19 29.89 1012 10 16 N/A
5:35 pm 17:35 Sunny 83 28.5 60 15.6 46 46 SE 9 15 29.88 1012 10 16 N/A
5:55 pm 17:55 Sunny 83 28.5 59 15.2 44 44 SE 13 20 29.87 1011 10 16 N/A
6:15 pm 18:15 Sunny 82 28 61 16.3 49 49 SE 10 17 29.87 1012 10 16 N/A
6:35 pm 18:35 Sunny 82 27.5 62 16.8 52 52 SE 9 15 29.88 1012 10 16 N/A
6:55 pm 18:55 Sunny 81 27.1 62 16.8 53 53 ESE 9 15 29.88 1012 10 16 N/A
7:15 pm 19:15 Sunny 79 26.2 63 17.1 57 57 ESE 12 19 29.90 1012 10 16 N/A
7:35 pm 19:35 Sunny 78 25.6 62 16.4 57 57 ESE 9 15 29.90 1013 10 16 N/A
7:55 pm 19:55 Sunny 76 24.6 62 16.6 61 61 ESE 9 15 29.92 1013 10 16 N/A
8:15 pm 20:15 Sunny 74 23.6 63 17 67 67 ESE 9 15 29.93 1013 10 16 N/A
8:35 pm 20:35 Sunny 73 22.9 62 16.6 68 68 ESE 9 15 29.93 1014 10 16 N/A
8:55 pm 20:55 Clear 72 22.4 62 16.5 69 69 ESE 8 13 29.95 1014 10 16 N/A
9:15 pm 21:15 Clear 70 21 62 16.8 77 77 ESE 6 9 29.96 1015 10 16 N/A
9:35 pm 21:35 Clear 69 20.5 62 16.9 80 80 SE 7 11 29.96 1015 10 16 N/A
9:55 pm 21:55 Clear 68 20 62 16.6 81 81 SE 8 13 29.98 1015 10 16 N/A
10:15 pm 22:15 Clear 67 19.6 62 16.5 82 82 SE 8 13 29.99 1016 10 16 N/A
10:35 pm 22:35 Clear 67 19.2 62 16.5 84 84 ESE 7 11 29.99 1016 10 16 N/A
10:55 pm 22:55 Clear 66 18.8 62 16.5 87 87 SE 7 11 30.00 1016 10 16 N/A
11:15 pm 23:15 Clear 66 19 62 16.5 86 86 SE 8 13 30.00 1016 10 16 N/A
11:35 pm 23:35 Clear 66 18.8 61 16.1 84 84 SE 10 17 29.99 1015 10 16 N/A
11:55 pm 23:55 Clear 66 18.7 61 15.9 84 84 SSE 10 17 30.00 1016 10 16 N/A

Powered by AerisWeather